WetterOnline ( https://www.wetteronline.de )

Wetter aktuell Regen

Aktuelles Wetter: Zwiesel (613m)

6-stündlich | Neueste Meldungen
Ortszeit Temperatur Wetter
Sa, 04.04. 2:00 2.9° C bedeckt
Fr, 03.04. 20:00 7.0° C bedeckt
Fr, 03.04. 14:00 8.9° C bedeckt
Fr, 03.04. 8:00 -3.9° C wolkenlos
Fr, 03.04. 2:00 -3.2° C wolkenlos
Do, 02.04. 20:00 5.9° C wolkenlos
Do, 02.04. 14:00 9.5° C wolkenlos
Do, 02.04. 8:00 -5.5° C wolkenlos
Ortszeit Temperatur Wetter
Sa, 04.04. 5:30 1.8° C bedeckt
Sa, 04.04. 5:20 1.8° C bedeckt
Sa, 04.04. 5:10 2.0° C bedeckt
Sa, 04.04. 5:00 1.8° C bedeckt
Sa, 04.04. 4:50 1.8° C bedeckt
Sa, 04.04. 4:40 2.2° C bedeckt
Sa, 04.04. 4:30 2.0° C bedeckt
Sa, 04.04. 4:00 2.3° C bedeckt
Ortszeit Relative Feuchte Sichtweite
Sa, 04.04. 2:00 75% 35 km
Fr, 03.04. 20:00 55% 45 km
Fr, 03.04. 14:00 46% 40 km
Fr, 03.04. 8:00 74% 26 km
Fr, 03.04. 2:00 73% 30 km
Do, 02.04. 20:00 38% 45 km
Do, 02.04. 14:00 28% 35 km
Do, 02.04. 8:00 73% 29 km
Ortszeit Relative Feuchte Sichtweite
Sa, 04.04. 5:30 81% 35 km
Sa, 04.04. 5:20 81% -
Sa, 04.04. 5:10 80% -
Sa, 04.04. 5:00 82% 35 km
Sa, 04.04. 4:50 82% -
Sa, 04.04. 4:40 80% -
Sa, 04.04. 4:30 80% 40 km
Sa, 04.04. 4:00 79% 40 km
Ortszeit Niederschlagsmenge Niederschlagsart
Sa, 04.04. 2:00 0.0 l/m2 in 6 Std. -
Fr, 03.04. 20:00 0.0 l/m2 in 12 Std. -
Fr, 03.04. 14:00 0.0 l/m2 in 6 Std. -
Fr, 03.04. 8:00 0.0 l/m2 in 12 Std. -
Fr, 03.04. 2:00 0.0 l/m2 in 6 Std. -
Do, 02.04. 20:00 0.0 l/m2 in 12 Std. -
Do, 02.04. 14:00 0.0 l/m2 in 6 Std. -
Do, 02.04. 8:00 0.0 l/m2 in 12 Std. -
Ortszeit Niederschlagsmenge Niederschlagsart
Sa, 04.04. 5:30 0.0 l/m2 in 1 Std. -
Sa, 04.04. 5:20 keine Meldung -
Sa, 04.04. 5:10 keine Meldung -
Sa, 04.04. 5:00 0.0 l/m2 in 1 Std. -
Sa, 04.04. 4:50 keine Meldung -
Sa, 04.04. 4:40 keine Meldung -
Sa, 04.04. 4:30 0.0 l/m2 in 1 Std. -
Sa, 04.04. 4:00 0.0 l/m2 in 1 Std. -
Ortszeit Stärke Spitze Richtung
km/h Bft. km/h Grad Sektor
Sa, 04.04. 2:00 4 1 11 110° O
Fr, 03.04. 20:00 7 2 29 360° N
Fr, 03.04. 14:00 18 3 36 310° NW
Fr, 03.04. 8:00 0 0 7 - -
Fr, 03.04. 2:00 4 1 11 340° N
Do, 02.04. 20:00 4 1 22 320° NW
Do, 02.04. 14:00 7 2 25 150° SO
Do, 02.04. 8:00 4 1 11 360° N
Ortszeit Stärke Spitze Richtung
km/h Bft. km/h Grad Sektor
Sa, 04.04. 5:30 0 0 4 - -
Sa, 04.04. 5:20 2 1 - 160° S
Sa, 04.04. 5:10 2 1 - 290° W
Sa, 04.04. 5:00 6 1 9 330° NW
Sa, 04.04. 4:50 6 1 - 330° NW
Sa, 04.04. 4:40 6 1 - 110° O
Sa, 04.04. 4:30 4 1 7 130° SO
Sa, 04.04. 4:00 4 1 4 220° SW
Ortszeit Untergrenze Bedeckung Gattung
total tief tief mittel hoch
Sa, 04.04. 2:00 2100 m 8/8 8/8 - - -
Fr, 03.04. 20:00 1800 m 8/8 8/8 - - -
Fr, 03.04. 14:00 2100 m 8/8 8/8 - - -
Fr, 03.04. 8:00 - 0/8 0/8 - - -
Fr, 03.04. 2:00 - 0/8 0/8 - - -
Do, 02.04. 20:00 - 0/8 0/8 - - -
Do, 02.04. 14:00 - 0/8 0/8 - - -
Do, 02.04. 8:00 - 0/8 0/8 - - -
Ortszeit Bedeckungsgrad in Achtel und Wolkenuntergrenze
Sa, 04.04. 5:30 8(1800m)
Sa, 04.04. 5:20 8(1800m)
Sa, 04.04. 5:10 8(1800m)
Sa, 04.04. 5:00 8(1800m)
Sa, 04.04. 4:50 8(1800m)
Sa, 04.04. 4:40 8(1800m)
Sa, 04.04. 4:30 8(1800m)
Sa, 04.04. 4:00 8(1800m)
Ortszeit Luftdruck NN (hPa) Tendenz (hPa in 3 Std.)
Sa, 04.04. 2:00 1022 + 1,0
Fr, 03.04. 20:00 1018 + 1,5
Fr, 03.04. 14:00 1015 + 0,5
Fr, 03.04. 8:00 1017 + 1,7
Fr, 03.04. 2:00 1014 + 0,2
Do, 02.04. 20:00 1011 - 0,2
Do, 02.04. 14:00 1012 - 1,6
Do, 02.04. 8:00 1019 + 0,2
Ortszeit Luftdruck NN (hPa) Tendenz (hPa in 3 Std.)
Sa, 04.04. 5:30 1023 + 0,3
Sa, 04.04. 5:20 1023 keine Meldung
Sa, 04.04. 5:10 1023 keine Meldung
Sa, 04.04. 5:00 1023 + 0,4
Sa, 04.04. 4:50 1023 keine Meldung
Sa, 04.04. 4:40 1023 keine Meldung
Sa, 04.04. 4:30 1023 + 0,7
Sa, 04.04. 4:00 1023 + 0,8
Ortszeit Schneehöhe (cm)
Sa, 04.04. 2:00 0
Fr, 03.04. 20:00 0
Fr, 03.04. 14:00 0
Fr, 03.04. 8:00 0
Fr, 03.04. 2:00 0
Do, 02.04. 20:00 0
Do, 02.04. 14:00 0
Do, 02.04. 8:00 0
Ortszeit Schneehöhe (cm)
Sa, 04.04. 5:30 0
Sa, 04.04. 5:20 0
Sa, 04.04. 5:10 0
Sa, 04.04. 5:00 0
Sa, 04.04. 4:50 0
Sa, 04.04. 4:40 0
Sa, 04.04. 4:30 0
Sa, 04.04. 4:00 0
Link zu dieser Seite / Seite empfehlen

Das Wetter in ...